SES-12

Last updated on Thu Sep 24 2026 00:03:19 GMT+0000 (Coordinated Universal Time)

1 43488U 18049A 26266.59122959 -.00000271 00000+0 00000+0 0 9992 2 43488 0.0315 51.0367 0001819 187.3796 71.8868 1.00272076 30400
UTC large
Height (km)
Speed (km/s)
/
Latitude / Longitude
Inclination (degrees)
Orbital Period (minutes)
Azimuth
Elevation
Range (km)
Doppler Factor

Next 0 passes for location: London (51.5072 / 0.1276)

No passes found over London.
SES-12